Regional Weather Roundup
Issued by NWS

Home | Current Version | Previous Version | Text Only | Print | Product List | Glossary On
Versions: 1 2 3 4 5 6 7 8 9 10 11 12 13 14 15 16 17 18 19 20 21 22 23 24 25 26 27 28 29 30 31 32 33 34 35 36 37 38 39 40 41 42 43 44 45 46 47 48
000
ASUS42 KFFC 051003
RWRGA
WEATHER ROUNDUP FOR GEORGIA
NATIONAL WEATHER SERVICE PEACHTREE CITY GA
500 AM EST THU MAR 05 2015

NOTE: "FAIR" INDICATES FEW OR NO CLOUDS BELOW 12,000 FEET WITH NO
SIGNIFICANT WEATHER AND/OR OBSTRUCTIONS TO VISIBILITY.

* = USE WITH CAUTION. THE STATIONS MARKED WITH AN ASTERISK MAY NOT
REPORT WEATHER SUCH AS PRECIPITATION, FOG, OR THUNDER AND ARE NOT
QUALITY CONTROLLED BY NWS.

THE REMARK "TC" DENOTES TEMPERATURE READING IN DEGREES CELSIUS.

GAZ001>058-051100-
NORTH GEORGIA

CITY           SKY/WX    TMP DP  RH WIND       PRES   REMARKS
ATLANTA        LGT RAIN  67  64  90 SW10G17   29.88R
ATHENS         LGT RAIN  65  63  93 S10       29.87S
CHAMBLEE       CLOUDY    65  64  97 S8        29.86S
PEACHTREE CITY CLOUDY    66  63  90 MISG      29.89S
ROME           CLOUDY    44  42  93 NW8       29.94R
WEST ATLANTA   LGT RAIN  66  64  93 SW8       29.86S
GAINESVILLE    CLOUDY    64  63  96 S8        29.87S
CARTERSVILLE   LGT RAIN  48  45  89 VRB5      29.93R


CITY           SKY/WX    TMP DP  RH WIND       PRES   REMARKS
DALTON*        DRIZZLE   41  41 100 N14G22    29.95R
MARIETTA       LGT RAIN  64  64 100 W13G22    29.86R
$$

GAZ059>098-102>109-051100-
CENTRAL GEORGIA

CITY           SKY/WX    TMP DP  RH WIND       PRES   REMARKS
AUGUSTA-BUSH   MOCLDY    67  62  84 S12       29.92F
AUGUSTA-DANIEL MOCLDY    68  63  84 SW14G21   29.93S
COLUMBUS       LGT RAIN  64  63  96 S8        29.91F
MACON          CLOUDY    68  64  87 SW7       29.93S
ROBINS AFB     CLOUDY    69  65  86 S8        29.93S


CITY           SKY/WX    TMP DP  RH WIND       PRES   REMARKS
LAGRANGE*      CLOUDY    68  67  95 SW7       29.90R
SYLVANIA*      CLEAR     65  64  98 CALM      29.98S
MILLEDGEVILLE* CLOUDY    68  66  94 CALM      29.91S
$$

GAZ099>101-110>166-051100-
SOUTH GEORGIA

CITY           SKY/WX    TMP DP  RH WIND       PRES   REMARKS
SAVANNAH       CLOUDY    64  62  93 S13       30.00S
VALDOSTA       LGT RAIN  68  67  96 VRB5      30.03R
ALMA           CLOUDY    66  64  93 S8        30.01R
ST SIMONS      MOCLDY    62  61  96 SW5       30.03S
FT STEWART     MOCLDY    65  63  93 S6        29.99R
ALBANY         CLEAR     68  65  90 S12       29.99S
MOODY AFB      CLOUDY    68  66  94 S8        30.01S
BRUNSWICK      CLOUDY    68  64  88 SW7       30.04R


CITY           SKY/WX    TMP DP  RH WIND       PRES   REMARKS
BAINBRIDGE*    MOCLDY    73  70  88 SW6       30.00R
MOULTRIE*      CLOUDY    68  68 100 S5        30.02R
VIDALIA*       MOCLDY    64  64 100 SW5       29.97S
WAYCROSS*      PTCLDY    69  68  96 SW3       30.02S
DOUGLAS*       MOCLDY    70  64  83 SW10      30.02S
$$


USA.gov is the U.S. government's official web portal to all federal, state and local government web resources and services.